RH
10 11 12 14 15 15 17 19 21 27 33 39 46 47 46 50 56 57 56 57 57 59 63 64 67 68 71 72 67 64 63 64 66 66 67 71 67 63 63 60 56 56 57 58 58 57 55 54 52 48 46 47 48 46 44 43 45 45 46 45 44 44 42 41 42 43 47 51 55 62 64 62 62 63 64 60 55 50 46 44 42 41 41 42 45 50
13 13 14 15 16 17 20 24 29 36 35 37 45 44 43 48 53 53 53 56 57 58 59 60 64 67 67 70 66 59 59 62 64 64 66 68 68 67 64 62 59 58 60 62 59 58 58 55 50 47 48 48 46 46 44 43 43 45 45 43 44 43 40 39 39 39 44 47 50 56 59 59 60 62 63 60 57 49 44 40 38 38 38 40 44 50
16 14 14 16 18 19 24 27 31 38 32 31 39 39 39 48 53 50 52 56 55 56 57 56 62 66 65 67 67 63 61 63 65 64 64 66 69 70 67 67 65 61 62 63 60 58 59 58 50 46 48 48 46 46 45 43 43 44 44 41 43 41 38 39 40 41 41 42 45 49 54 56 57 60 60 60 58 50 45 41 37 37 37 39 43 47
17 17 16 18 19 18 20 21 26 30 27 29 34 31 31 43 52 52 53 56 55 56 58 59 64 67 67 69 69 68 66 66 68 66 64 65 69 72 70 70 69 63 61 61 60 59 58 58 53 47 47 46 47 47 45 45 44 44 44 40 41 40 36 39 42 44 42 40 43 47 51 50 49 57 59 59 59 51 47 43 39 38 37 38 40 44
18 19 18 18 17 16 16 17 21 24 24 28 29 26 25 32 44 49 50 54 55 57 57 58 67 69 69 73 74 71 70 69 69 68 65 64 67 71 72 72 70 65 61 59 60 60 58 57 53 51 49 46 48 48 45 46 44 44 44 40 40 38 36 40 43 45 43 43 45 47 49 44 43 53 55 56 59 53 47 43 40 39 37 38 40 42
16 17 15 14 14 13 12 12 15 19 21 22 22 24 24 25 34 42 46 51 55 59 57 58 70 75 71 73 75 75 75 74 73 71 70 67 66 71 75 74 73 71 67 63 61 60 59 59 55 53 51 47 49 49 46 47 45 45 45 39 38 37 36 40 43 44 44 44 45 45 48 44 42 49 51 52 56 53 46 41 39 39 37 39 41 41
12 13 11 12 11 9 9 8 10 14 16 17 19 20 22 23 27 35 43 50 52 53 51 52 66 78 77 76 77 77 77 79 79 77 75 73 70 72 75 73 73 75 73 67 64 61 59 60 59 56 53 50 50 50 48 48 46 46 46 40 37 37 37 39 40 42 44 44 44 44 46 43 40 46 48 48 53 51 43 38 38 38 36 38 41 43
14 13 12 11 11 10 11 11 10 10 11 16 17 17 20 22 23 28 35 41 41 42 48 52 60 74 79 78 76 75 76 79 80 81 80 78 75 74 73 71 70 72 72 69 67 64 60 60 60 59 57 52 52 53 50 49 49 47 47 42 37 37 36 36 38 39 41 43 43 41 43 41 38 40 41 44 50 48 42 39 39 37 33 37 42 43
19 20 15 12 12 13 14 15 13 9 12 16 15 16 21 22 23 26 27 30 31 33 47 54 55 69 80 77 74 75 77 78 76 79 81 78 77 76 73 71 71 71 72 71 68 66 63 60 60 60 59 55 54 57 55 53 52 49 47 43 37 36 36 33 34 36 36 39 41 40 40 40 39 38 38 42 46 44 42 42 39 36 31 36 45 44
21 20 15 13 12 13 15 17 14 12 15 14 11 14 18 20 21 22 22 25 27 27 37 44 50 68 79 73 72 77 77 76 75 76 77 74 73 74 73 71 71 73 75 73 70 69 66 61 59 60 60 57 55 57 58 57 55 51 47 43 37 36 36 33 31 31 31 33 37 38 40 38 39 41 39 41 44 43 44 42 39 37 31 34 46 46
18 15 13 14 12 11 14 15 13 13 14 9 10 12 15 18 18 20 24 22 24 26 26 29 40 62 74 69 67 72 71 69 70 72 73 72 70 70 71 71 71 73 76 76 72 71 69 66 62 61 60 59 56 56 58 57 57 55 49 44 38 36 37 35 30 28 27 29 30 32 36 36 39 44 40 39 43 42 43 43 40 40 35 33 41 43
18 17 17 17 15 12 10 12 12 12 11 8 10 9 12 20 19 23 31 25 27 34 28 23 30 52 70 67 62 67 68 65 66 67 69 71 70 68 68 71 73 72 73 75 74 71 71 70 66 62 62 62 60 59 60 57 56 57 54 46 40 36 37 36 31 27 25 26 27 28 31 33 35 41 40 39 43 41 40 43 41 40 39 36 35 38
21 20 21 20 19 15 9 11 12 13 14 13 13 11 18 29 28 31 38 35 35 39 35 29 33 52 67 60 57 64 65 65 65 64 63 65 67 68 67 70 73 72 72 75 74 70 69 69 67 65 63 64 64 62 63 60 57 57 59 53 44 37 36 37 34 29 25 24 25 26 28 30 31 35 37 38 40 39 38 40 40 39 39 37 35 36
24 25 25 22 19 14 10 12 13 16 20 21 20 22 29 36 36 38 42 41 39 37 37 39 46 64 71 62 60 63 61 61 62 62 62 62 63 65 68 72 73 72 73 77 75 70 69 67 66 67 65 65 65 63 62 62 60 60 61 59 51 42 37 37 36 33 28 25 24 25 27 29 29 30 33 35 36 37 36 37 38 38 38 37 37 36
26 27 27 23 20 15 14 14 14 19 25 26 24 25 29 32 34 36 38 38 36 35 42 49 58 74 77 69 67 64 59 59 61 63 64 65 64 62 67 73 75 75 76 79 77 72 73 70 67 68 68 66 65 63 61 61 62 62 62 62 56 47 41 37 36 35 32 29 26 25 27 29 29 30 32 33 34 35 34 35 36 37 36 36 37 37
25 27 26 24 22 22 21 17 16 22 26 25 24 23 24 27 29 30 31 32 29 34 52 62 67 75 75 72 68 62 59 59 60 63 64 66 67 65 67 72 75 78 78 80 79 76 78 76 70 68 66 66 67 65 62 60 61 62 62 64 61 55 48 41 36 35 33 33 31 29 29 29 27 28 30 32 33 33 31 31 32 35 34 34 35 35
25 26 26 25 26 25 22 16 16 21 23 24 25 25 26 26 28 29 29 30 26 38 65 75 73 74 72 70 67 62 65 65 63 64 63 64 67 68 72 74 75 78 80 82 83 81 82 79 76 71 66 66 69 67 64 62 63 64 63 65 65 61 55 48 41 37 34 34 34 33 32 31 28 26 27 28 29 31 32 30 30 33 36 36 36 37
23 27 27 26 27 24 18 14 14 15 17 21 23 25 28 27 29 29 31 33 28 41 71 80 78 80 75 73 73 69 72 72 69 68 66 66 69 71 75 76 77 79 81 84 85 83 83 81 80 78 72 68 66 66 66 66 67 67 64 66 70 67 60 54 47 41 36 35 35 34 34 34 33 30 28 26 26 30 33 32 31 33 37 38 39 40
22 26 27 24 22 22 17 12 13 13 16 22 21 22 27 29 31 31 33 36 31 42 71 80 79 84 82 79 79 74 71 70 69 70 69 70 75 77 76 77 80 80 79 81 84 83 81 80 81 82 78 73 68 65 66 68 69 67 65 68 75 74 66 60 56 48 41 37 36 36 36 36 37 38 35 31 29 30 30 30 32 34 36 37 38 40
20 22 26 23 20 23 20 13 16 19 19 22 22 20 22 24 29 31 32 34 32 41 63 76 80 86 86 83 79 74 71 70 69 70 71 71 75 77 77 78 79 79 78 79 80 80 78 77 78 78 79 79 74 68 65 67 68 68 71 74 76 76 70 65 63 58 52 45 40 38 38 38 39 42 43 40 37 36 33 31 32 34 35 35 36 37
16 18 25 25 21 26 25 19 22 26 24 25 26 25 26 26 27 30 32 32 35 41 52 69 83 86 83 81 78 76 76 74 72 72 74 74 73 72 74 77 77 77 78 79 79 79 77 78 78 78 79 81 80 74 69 69 70 70 75 78 77 74 69 64 62 62 64 61 52 46 44 42 42 43 46 47 46 44 42 39 37 37 36 35 35 36
15 17 24 24 23 29 30 24 24 28 29 30 29 28 33 34 30 32 37 36 37 41 44 60 81 84 78 77 75 75 75 72 69 70 72 73 72 70 70 74 78 78 77 78 79 79 78 79 78 78 79 79 81 80 74 74 75 74 75 76 75 74 71 69 66 67 71 72 64 56 51 49 48 46 45 47 48 47 46 45 44 43 41 40 39 38
17 17 20 23 25 29 28 25 25 27 28 30 29 28 29 32 32 35 42 41 40 42 42 54 76 80 74 72 71 71 71 68 65 67 70 72 71 70 70 72 76 78 78 78 78 79 78 79 79 79 81 80 81 84 83 82 81 77 75 72 71 74 77 77 74 70 73 76 72 66 60 56 54 52 50 50 49 48 48 48 48 47 46 47 48 47
17 17 19 23 25 25 24 25 25 24 23 24 27 27 23 25 30 34 38 40 42 44 43 54 75 79 72 69 68 68 67 65 64 66 67 68 67 67 69 72 75 78 78 77 78 79 78 78 79 80 83 83 82 84 87 87 86 82 80 77 73 73 77 79 77 73 72 74 73 71 67 63 62 62 63 62 59 59 59 60 60 59 53 50 49 50
18 20 21 22 27 31 32 32 31 27 25 23 21 23 26 25 27 32 35 40 45 46 44 56 74 75 69 67 66 66 67 65 64 65 65 64 64 63 63 67 73 77 78 77 77 79 79 78 78 79 81 83 82 83 85 87 89 87 85 84 80 74 73 76 77 75 73 71 71 72 71 67 65 65 67 67 67 68 67 65 66 68 66 61 57 54
19 22 23 24 29 36 38 38 39 35 33 30 22 23 31 32 31 35 39 44 47 46 48 59 70 71 67 66 67 68 67 65 63 66 66 64 64 62 59 62 67 73 78 78 77 79 79 78 79 80 80 79 79 81 83 86 89 90 88 87 86 80 75 74 74 75 74 73 73 74 71 66 62 62 65 67 68 70 70 68 69 71 70 68 68 67
20 21 21 22 25 28 29 32 36 35 33 35 32 29 33 34 36 40 43 45 44 43 51 61 64 68 69 67 68 68 64 62 61 62 63 62 63 63 61 61 64 68 75 78 77 80 81 79 79 80 78 76 74 74 78 82 85 87 89 89 90 87 81 76 75 75 73 71 74 77 73 68 63 61 63 65 67 70 72 72 72 72 69 66 67 69
20 20 20 19 19 20 23 27 33 34 33 34 33 31 30 30 34 39 41 43 43 44 55 60 58 63 67 65 66 65 61 60 59 56 57 58 60 61 61 62 64 66 71 74 76 80 82 80 80 79 77 76 75 73 74 78 80 83 86 89 90 90 86 80 78 78 75 72 75 78 75 70 66 61 63 68 72 73 73 70 70 72 71 70 69 68
19 19 19 17 15 16 19 23 28 32 34 32 29 27 25 24 29 35 35 37 41 45 53 57 56 59 61 61 62 61 58 59 57 54 54 55 58 59 59 60 63 65 68 72 75 79 79 76 76 78 78 77 76 76 78 79 80 80 81 84 86 87 85 81 79 80 79 77 77 76 72 68 63 60 64 74 78 75 72 68 69 73 72 72 75 75
20 19 18 17 16 17 19 22 24 25 27 27 25 23 21 19 23 26 26 31 38 42 46 51 54 56 56 57 59 57 56 57 55 53 52 54 58 59 57 57 59 62 66 69 72 76 76 73 71 74 78 78 76 77 79 80 79 76 74 76 79 80 81 81 79 77 78 80 80 77 72 68 65 64 67 74 78 75 70 65 63 67 68 69 74 76
23 22 19 18 19 20 20 21 22 22 20 19 19 20 18 16 17 18 22 30 37 42 44 44 49 54 55 54 53 52 52 54 54 54 53 53 57 58 58 58 58 59 63 67 69 71 74 74 72 73 75 76 75 74 76 77 76 73 70 69 69 71 75 78 80 79 79 82 86 85 78 72 69 68 68 69 71 71 69 64 60 60 62 63 68 71
29 27 24 22 22 23 22 21 22 22 19 19 19 20 18 17 19 24 28 32 36 42 45 45 49 56 57 53 50 50 51 53 54 55 55 55 56 58 59 59 59 59 61 64 67 69 73 75 74 73 72 72 72 71 72 73 73 72 70 66 63 64 66 69 75 82 84 85 87 87 85 81 76 72 69 67 66 65 64 63 61 61 62 61 64 68
33 33 30 27 26 24 23 25 26 25 25 29 29 25 23 24 25 29 33 33 34 39 43 47 53 55 53 50 50 51 52 52 52 52 53 56 57 58 59 58 59 60 60 63 67 70 74 76 75 74 73 73 73 72 71 71 71 70 69 66 63 62 62 62 67 74 80 82 83 82 83 84 82 79 76 73 70 69 68 67 66 65 65 65 66 67
38 37 35 33 30 25 24 28 32 33 36 42 39 32 30 32 32 33 37 37 36 37 40 46 52 52 50 49 50 51 50 49 49 49 50 53 53 55 58 58 58 58 58 60 63 67 72 76 77 77 77 77 76 75 74 73 73 72 69 66 65 64 63 62 63 65 68 73 77 79 80 80 80 80 84 83 79 77 75 72 70 68 67 68 67 66
40 39 36 34 30 28 28 31 35 41 43 42 41 36 33 33 34 35 39 39 39 40 42 46 50 52 53 52 50 50 50 49 49 50 50 50 50 51 55 57 58 57 56 57 60 63 67 73 77 78 79 81 80 77 76 76 73 71 67 64 63 64 63 64 64 65 64 67 73 78 81 82 81 81 86 89 88 85 81 77 74 71 68 67 66 65
38 38 37 35 31 29 32 36 40 44 44 42 41 38 33 31 31 34 41 44 43 43 43 45 48 51 53 51 48 49 51 51 51 52 52 50 50 50 52 55 57 57 56 58 60 61 64 70 77 80 81 82 81 78 77 76 73 69 66 64 64 63 63 64 65 66 66 67 72 77 80 84 86 85 86 89 89 87 85 83 81 78 75 72 68 67
38 39 39 37 33 31 34 40 39 39 45 50 46 38 36 35 33 34 42 48 46 44 44 45 47 48 47 47 47 48 49 50 53 56 54 52 51 50 48 50 54 57 57 59 61 63 63 67 75 81 82 82 81 79 77 75 73 70 67 66 65 65 65 65 65 66 66 67 70 74 77 79 82 83 83 84 86 88 88 88 85 82 81 78 74 71
38 39 40 39 37 35 36 41 38 36 46 55 50 41 39 38 37 37 43 50 49 45 45 46 47 45 43 45 48 48 48 51 56 58 56 55 55 52 47 47 51 55 57 58 62 65 67 68 71 76 82 84 83 81 78 76 74 72 70 68 68 70 71 70 70 70 71 72 73 74 75 76 76 79 80 80 83 85 86 84 81 78 77 76 75 74
38 40 41 38 37 37 36 38 38 39 48 54 51 46 41 38 40 42 48 56 55 48 46 47 46 45 45 46 48 48 50 55 59 59 57 56 56 53 50 49 50 54 55 56 59 64 68 70 70 74 82 86 83 80 78 75 73 72 72 70 70 72 73 73 74 76 77 79 79 77 78 78 77 78 79 80 79 79 79 78 74 71 69 68 69 70
43 45 42 37 37 38 37 35 34 38 48 51 49 46 41 39 41 43 49 56 54 46 46 48 46 46 46 45 46 48 50 52 55 56 55 53 53 53 52 51 51 54 55 55 58 62 66 69 71 76 85 87 83 80 77 74 74 75 73 69 68 68 68 68 71 74 75 77 79 79 80 81 78 74 73 74 74 74 74 74 72 69 67 67 67 68
45 44 41 39 39 39 37 36 35 39 47 49 47 44 38 36 39 41 45 50 47 44 46 47 46 46 45 42 44 46 45 44 47 52 53 51 50 51 52 52 53 55 56 57 60 64 66 69 73 81 88 88 85 82 78 76 77 78 75 68 64 62 60 60 63 65 66 70 74 75 76 75 72 71 68 66 67 68 69 71 71 69 66 64 62 63
47 45 42 42 42 41 40 38 38 43 46 41 39 40 36 37 44 46 45 45 43 44 46 44 44 45 43 41 42 43 42 42 45 51 53 50 49 49 50 52 54 55 57 59 62 66 68 69 71 79 86 88 84 81 76 73 74 74 71 67 64 63 61 61 64 66 65 66 70 71 70 68 66 66 65 62 61 62 62 64 66 66 64 61 58 58
51 50 48 47 46 45 43 39 40 47 47 38 36 40 39 41 46 46 43 43 42 41 42 42 42 41 39 39 40 40 41 43 45 48 49 48 48 47 46 48 52 55 57 60 62 66 68 67 68 74 81 82 79 74 70 67 67 65 62 62 63 63 63 63 66 69 70 70 71 71 69 66 61 60 60 59 58 58 58 60 61 61 62 62 62 61
55 52 53 55 53 50 48 46 45 47 46 40 40 44 43 42 45 44 42 42 41 39 39 41 42 41 39 38 39 39 42 44 45 45 44 44 45 44 42 43 50 55 57 58 61 63 64 64 64 68 72 71 71 72 71 66 61 58 58 59 60 60 62 63 64 64 66 68 68 65 62 59 56 56 56 55 55 54 55 57 59 59 60 62 62 63
57 57 59 61 59 55 53 53 50 47 46 42 41 42 42 42 45 45 42 39 37 36 37 39 41 41 41 39 39 39 41 43 44 42 40 40 42 43 43 44 49 53 56 58 60 61 61 62 64 65 66 66 66 70 72 68 62 60 60 61 60 59 60 62 61 60 59 58 57 56 55 52 51 52 52 51 52 53 54 56 57 58 59 60 60 60
56 57 60 60 60 57 54 53 53 52 52 50 46 45 44 42 44 45 43 40 37 37 37 38 38 39 39 38 38 39 40 42 42 41 39 39 40 41 43 46 50 53 56 59 61 62 63 64 67 68 68 68 67 68 70 69 66 65 65 64 63 61 60 59 59 58 56 54 52 51 50 48 46 45 45 46 46 46 48 51 53 55 57 58 58 58
58 56 57 59 58 57 56 57 55 53 53 53 51 49 48 47 48 49 48 43 38 37 38 37 36 36 35 35 35 37 40 41 41 39 38 36 36 38 42 47 52 54 57 60 62 63 63 65 68 70 71 71 68 66 66 66 66 66 67 66 64 64 62 61 60 59 57 54 52 51 49 47 45 43 43 44 44 43 42 42 43 45 47 49 50 50
59 56 59 59 56 56 58 58 55 52 53 53 52 51 51 51 52 52 48 43 38 35 35 34 33 33 34 35 36 37 39 40 39 37 36 33 34 37 41 47 52 55 57 61 63 64 64 64 66 70 71 71 68 63 60 59 59 60 62 63 63 63 61 60 59 58 57 54 52 51 50 49 48 46 45 46 48 47 45 44 42 41 41 41 41 40
58 60 64 62 58 57 57 55 52 53 55 53 50 51 52 52 53 51 46 42 39 36 35 33 31 31 33 36 37 37 38 39 37 36 35 32 34 38 42 46 50 53 55 58 60 62 62 61 63 66 67 67 67 64 59 56 54 54 56 59 61 61 58 55 53 53 53 51 49 50 49 48 48 47 45 46 47 46 45 44 42 41 40 40 39 37
56 61 63 61 60 60 58 55 53 55 57 54 49 50 52 52 52 49 43 40 39 38 37 33 30 31 34 36 37 37 37 37 36 36 35 33 34 40 44 46 47 49 51 53 55 58 59 58 59 62 64 64 63 62 59 56 54 52 52 56 59 58 55 52 48 46 47 47 46 46 47 47 46 45 44 45 44 42 41 41 39 37 37 36 34 34
57 60 60 60 62 59 56 54 53 54 57 55 52 51 52 53 54 51 46 42 39 37 35 33 30 32 35 36 36 37 37 37 36 35 34 32 34 40 45 46 46 47 49 50 52 56 59 59 59 61 64 66 64 62 60 57 53 50 49 52 55 55 52 50 46 43 42 42 41 41 42 42 42 42 40 40 39 38 36 36 34 32 31 31 29 27